Regional Weather Roundup
Issued by NWS Nashville, TN

Home | Current Version | Previous Version | Text Only | Print | Product List | Glossary On
Versions: 1 2 3 4 5 6 7 8 9 10 11 12 13 14 15 16 17 18 19 20 21 22 23 24 25 26 27 28 29 30 31 32 33 34 35 36 37 38 39 40 41 42 43 44 45 46 47 48 49 50
695
ASUS44 KOHX 180110
RWROHX
MIDDLE TENNESSEE HOURLY WEATHER ROUNDUP
NATIONAL WEATHER SERVICE NASHVILLE TN
800 PM CDT TUE OCT 17 2017

NOTE: "FAIR" INDICATES FEW OR NO CLOUDS BELOW 12,000 FEET WITH
NO SIGNIFICANT WEATHER AND/OR OBSTRUCTIONS TO VISIBILITY.

* THESE REPORTS ARE NOT UNDER NWS QUALITY CONTROL AND MAY NOT
  REPORT WEATHER SUCH AS PRECIPITATION AND FOG.


TNZ005>011-023>034-057-059-062>066-078-080-180200
...NORTHERN MIDDLE TENNESSEE...

CITY           SKY/WX    TMP DP  RH WIND       PRES   REMARKS
CLARKSVILLE    CLEAR     53  45  74 CALM      30.26R
CROSSVILLE     CLEAR     49  42  77 CALM      30.30R
GALLATIN       CLEAR     54  45  71 CALM      30.29S
DICKSON          N/A     50  46  85 CALM      30.26R
LEBANON        PTCLDY    50  43  77 CALM      30.25
NASHVILLE      MOCLDY    60  43  53 CALM      30.27S
PORTLAND       CLEAR     52  46  82 CALM      30.27R HAZE
SMYRNA         PTCLDY    53  46  77 CALM      30.28
SPARTA         CLEAR     45  43  93 CALM      30.27R
SPRINGFIELD    CLEAR     50  46  87 SE3       30.25S
WEST NASHVILLE CLEAR     54  46  76 CALM      30.25R
$$
TNZ056-058-060-061-075>077-079-093>097-180200
...SOUTHERN MIDDLE TENNESSEE...

CITY           SKY/WX    TMP DP  RH WIND       PRES   REMARKS
COLUMBIA       CLEAR     52  46  82 CALM      30.24S
FAYETTEVILLE   CLEAR     54  48  82 CALM      30.25S
MURFREESBORO   PTCLDY    56  45  66 CALM      30.26R
PULASKI        CLEAR     52  50  93 CALM      30.26R
SHELBYVILLE    CLEAR     50  48  93 E3        30.26S FOG
TULLAHOMA      CLEAR     50  45  81 CALM      30.28R
WINCHESTER     CLEAR     50  46  87 CALM        N/A
$$


...KEY TO REMARKS...
VSB - VISIBILITY IN MILES
WCI - WIND CHILL INDEX
HX  - HEAT INDEX





USA.gov is the U.S. government's official web portal to all federal, state and local government web resources and services.